Дербешкинский

Россия / Удмуртская Республика     55°52′52″N   53°26′14″E
темп.,
°C
ветер,
м/с
пор.,
м/с
влажн.,
%
обл.,
%
осадки,
мм/ч
давл.,
гПа
погр.,
м
24 июня, чт
чт2400:00+17всв24925 0.0 101971
03:00+16всв22905 0.0 102036
06:00+19вюв248167 0.0 1019189
09:00+23вюв116653 0.0 1019617
12:00+26сз125861 0.0 10191173
15:00+28сз245723 0.0 10171523
18:00+26зюз23714 0.1 101658
21:00+22юз37812 0.3 1015118
25 июня, пт
пт2500:00+20зюз2292100 2.6 101426
03:00+18зсз389285 2.6 1014139
06:00+21ссз378489 0.0 1014275
09:00+26ссз236488 0.0 1013539
12:00+29сз345594 0.0 10131103
15:00+31сз46524 0.0 10121789
18:00+29зюз34637 0.0 101062
21:00+24сз34770 0.0 101167
26 июня, сб
сб2600:00+19с369510 1.7 1012118
03:00+19зсз35945 1.7 101174
06:00+21сз46845 0.0 1011287
09:00+25сз34667 0.0 1011719
12:00+28ссз45605 0.0 10111307
15:00+29ссз46515 0.0 10111979
18:00+26ссз486867 0.0 1010317
21:00+22с22724 0.0 101114
27 июня, вс
вс2700:00+20сз22795 0.0 101226
03:00+19сз22848 0.0 101312
06:00+23зсз23716 0.0 1013156
09:00+28сз23565 0.0 1013736
12:00+30зсз33465 0.0 10131894
15:00+31з34476 0.0 10121821
18:00+21ссз4791100 3.3 1014178
21:00+20юз1285100 3.5 101311
28 июня, пн
пн2800:00+20в1188100 3.5 101311
03:00+19юв119266 4.3 101412
06:00+22юв238725 0.0 1014215
09:00+26юв217011 0.0 1014691
12:00+30в11589 0.0 10141284
15:00+30з125331 0.8 10131324
18:00+28юв116915 0.1 101345
21:00+23юв348648 0.6 101369